Change the Weather History Date:

Tuesday, September 2, 2014

  Actual Average Record
Temperature  
Mean Temperature 76 °F 72 °F  
Max Temperature 82 °F 82 °F 100 °F (1953)
Min Temperature 69 °F 61 °F 43 °F (1967)
Degree Days  
Heating Degree Days 0 0  
Month to date heating degree days 0 0  
Since 1 July heating degree days 0 0  
Cooling Degree Days 11 7  
Month to date cooling degree days 26 14  
Year to date cooling degree days 1048 903  
Growing Degree Days 26 (Base 50)    
Moisture  
Dew Point 68 °F    
Average Humidity 73    
Maximum Humidity 87    
Minimum Humidity 58    
Precipitation  
Precipitation 0.30 in 0.11 in 2.04 in (1982)
Month to date precipitation 0.45 0.21  
Year to date precipitation 30.96 27.90  
Snow  
Snow 0.00 in 0.00 in 0.00 in ()
Month to date snowfall 0.0 0.0  
Since 1 July snowfall 0.0 0.0  
Since 1 September snowfall 0.0 0.0  
Snow Depth 0.00 in    
Sea Level Pressure  
Sea Level Pressure 29.95 in    
Wind  
Wind Speed 6 mph (SW)    
Max Wind Speed 17 mph    
Max Gust Speed 22 mph    
Visibility 9 miles    
Events Rain , Thunderstorm    
T = Trace of Precipitation, MM = Missing Value Source: NWS Daily Summary

Daily Weather History Graph

Daily Weather History Graph

Search for Another Location

Airport or City:

Trip Planner

Search our weather history database for the weather conditions in past years. The results will help you decide how hot, cold, wet, or windy it might be!

Date:

Astronomy

Sep. 02, 2014 Rise Set
Actual Time 7:00 AM EDT 8:01 PM EDT
Civil Twilight 6:32 AM EDT 8:29 PM EDT
Nautical Twilight 5:59 AM EDT 9:01 PM EDT
Astronomical Twilight 5:25 AM EDT 9:36 PM EDT
Moon 2:43 PM EDT (9/2) 12:03 AM EDT (9/2)
Length of Visible Light 13h 56m
Length of Day
13h 01m
First Quarter, 52% of the Moon is Illuminated
Sep 2
First Quarter
Sep 8
Full
Sep 15
Last Quarter
Sep 24
New
Oct 1
First Quarter

Hourly Weather History & Observations

Time (EDT) Temp. Heat Index Dew Point Humidity Pressure Visibility Wind Dir Wind Speed Gust Speed Precip Events Conditions
12:51 AM 77.0 °F - 70.0 °F 79% 29.92 in 10.0 mi SSW 8.1 mph - N/A   Scattered Clouds
1:51 AM 75.9 °F - 70.0 °F 82% 29.94 in 10.0 mi SSW 5.8 mph - N/A   Scattered Clouds
2:33 AM 75.2 °F - 69.8 °F 83% 29.95 in 10.0 mi South 4.6 mph - N/A   Mostly Cloudy
2:51 AM 75.9 °F - 70.0 °F 82% 29.94 in 10.0 mi SSW 4.6 mph - N/A   Mostly Cloudy
3:19 AM 75.2 °F - 69.8 °F 83% 29.96 in 10.0 mi SSW 5.8 mph - N/A   Scattered Clouds
3:48 AM 75.2 °F - 69.8 °F 83% 29.96 in 10.0 mi SSW 8.1 mph - N/A   Mostly Cloudy
3:51 AM 75.9 °F - 70.0 °F 82% 29.94 in 10.0 mi SSW 6.9 mph - N/A   Mostly Cloudy
4:15 AM 75.2 °F - 69.8 °F 83% 29.95 in 10.0 mi SSW 4.6 mph - N/A   Partly Cloudy
4:34 AM 75.2 °F - 69.8 °F 83% 29.95 in 10.0 mi SSW 5.8 mph - N/A   Mostly Cloudy
4:51 AM 75.2 °F - 69.8 °F 83% 29.95 in 10.0 mi SSW 4.6 mph - N/A   Mostly Cloudy
5:03 AM 75.2 °F - 69.8 °F 83% 29.95 in 10.0 mi SW 5.8 mph - N/A   Scattered Clouds
5:28 AM 75.2 °F - 69.8 °F 83% 29.96 in 10.0 mi SW 5.8 mph - N/A   Mostly Cloudy
5:51 AM 75.0 °F - 69.1 °F 82% 29.94 in 10.0 mi South 6.9 mph - N/A   Overcast
6:28 AM 73.4 °F - 69.8 °F 88% 29.95 in 10.0 mi Calm Calm - N/A   Overcast
6:51 AM 73.9 °F - 69.1 °F 85% 29.94 in 10.0 mi WSW 3.5 mph - N/A   Overcast
7:01 AM 73.4 °F - 69.8 °F 88% 29.96 in 8.0 mi West 3.5 mph - 0.00 in Rain , Thunderstorm Light Thunderstorms and Rain
7:27 AM 73.4 °F - 69.8 °F 88% 29.98 in 2.5 mi SSE 4.6 mph - 0.04 in Rain , Thunderstorm Thunderstorms and Rain
7:34 AM 73.4 °F - 69.8 °F 88% 29.98 in 5.0 mi SE 6.9 mph - 0.04 in Rain , Thunderstorm Light Thunderstorms and Rain
7:39 AM 73.4 °F - 69.8 °F 88% 29.98 in 2.0 mi SE 4.6 mph - 0.06 in Rain , Thunderstorm Heavy Thunderstorms and Rain
7:51 AM 73.9 °F - 70.0 °F 87% 29.96 in 2.0 mi SSW 8.1 mph - 0.25 in Rain , Thunderstorm Thunderstorms and Rain
7:54 AM 73.4 °F - 69.8 °F 88% 29.99 in 2.5 mi WSW 15.0 mph 18.4 mph 0.01 in Rain Light Rain
8:06 AM 73.4 °F - 69.8 °F 88% 29.98 in 2.5 mi WNW 9.2 mph - 0.02 in Rain Light Rain
8:22 AM 71.6 °F - 66.2 °F 83% 29.99 in 7.0 mi NW 10.4 mph - 0.05 in Rain Light Rain
8:41 AM 71.6 °F - 64.4 °F 78% 29.99 in 7.0 mi WNW 11.5 mph - 0.05 in Rain Light Rain
8:51 AM 72.0 °F - 64.9 °F 78% 29.96 in 7.0 mi NW 4.6 mph - 0.05 in Rain Light Rain
8:58 AM 71.6 °F - 64.4 °F 78% 29.96 in 9.0 mi Calm Calm - 0.00 in Rain Light Rain
9:51 AM 72.0 °F - 66.9 °F 84% 29.92 in 10.0 mi SE 6.9 mph - 0.00 in Rain Light Rain
10:51 AM 73.4 °F - 69.8 °F 88% 29.92 in 10.0 mi South 5.8 mph 17.3 mph N/A   Mostly Cloudy
11:51 AM 75.9 °F - 66.9 °F 74% 29.94 in 10.0 mi SW 9.2 mph - N/A   Mostly Cloudy
12:41 PM 78.8 °F - 66.2 °F 65% 29.95 in 10.0 mi WSW 9.2 mph - N/A   Overcast
12:51 PM 78.1 °F - 66.9 °F 68% 29.92 in 10.0 mi WSW 10.4 mph - N/A   Overcast
1:02 PM 78.8 °F - 66.2 °F 65% 29.94 in 10.0 mi West 11.5 mph - N/A   Overcast
1:51 PM 82.0 °F 84.1 °F 66.0 °F 58% 29.91 in 10.0 mi WSW 10.4 mph 19.6 mph N/A   Mostly Cloudy
2:51 PM 81.0 °F 82.5 °F 64.0 °F 56% 29.91 in 10.0 mi West 12.7 mph 19.6 mph N/A   Overcast
3:51 PM 79.0 °F - 63.0 °F 58% 29.91 in 10.0 mi West 10.4 mph - N/A   Mostly Cloudy
4:51 PM 77.0 °F - 66.0 °F 69% 29.91 in 10.0 mi West 9.2 mph - 0.00 in Rain Light Rain
5:51 PM 79.0 °F - 64.9 °F 62% 29.91 in 10.0 mi West 9.2 mph - 0.00 in   Scattered Clouds
6:51 PM 78.1 °F - 64.9 °F 64% 29.91 in 10.0 mi WSW 8.1 mph - N/A   Scattered Clouds
7:51 PM 75.9 °F - 66.0 °F 71% 29.91 in 10.0 mi WSW 3.5 mph - N/A   Scattered Clouds
8:51 PM 73.0 °F - 64.9 °F 76% 29.93 in 10.0 mi West 4.6 mph - N/A   Partly Cloudy
9:51 PM 73.0 °F - 66.0 °F 79% 29.95 in 10.0 mi North 4.6 mph - N/A   Partly Cloudy
10:32 PM 73.4 °F - 66.2 °F 78% 29.98 in 10.0 mi Calm Calm - N/A   Mostly Cloudy
10:46 PM 73.4 °F - 66.2 °F 78% 29.99 in 10.0 mi Calm Calm - N/A   Partly Cloudy
10:51 PM 73.4 °F - 66.2 °F 78% 29.99 in 10.0 mi Calm Calm - N/A   Partly Cloudy
11:51 PM 70.0 °F - 64.9 °F 84% 29.98 in 10.0 mi SE 3.5 mph - N/A   Mostly Cloudy